[Show "Revision History"] [Show "General Page Infos"] [Show "Page hits and edits"]

Revision History

Showing page edit history entries from 1 to 35 out of 35 entries total. (5 | 10 | 25 | 50 | 100 | 200 items per page)

# Date Size Editor Comment Action
35 2011-03-15 05:02:01 18245 to previous ChrisMattmann add Gora report (late) view
34 2011-03-15 03:40:12 16770 to previous NoelBergman   view
33 2011-03-14 10:06:53 16744 to previous MartijnDashorst   view
32 2011-03-10 14:54:51 16333 to previous Upayavira Stanbol does not need to report view
31 2011-03-10 14:21:28 16420 to previous Upayavira   view
30 2011-03-10 12:02:35 16410 to previous GrantIngersoll   view
29 2011-03-09 21:22:20 16394 to previous TommasoTeofili   view
28 2011-03-09 21:06:30 16378 to previous joern   view
27 2011-03-09 21:03:10 16378 to previous joern   view
26 2011-03-09 15:16:22 15333 to previous SorenLassen   view
25 2011-03-08 18:19:03 14214 to previous andrew   view
24 2011-03-08 14:58:05 14418 to previous michaelfitzner   view
23 2011-03-08 13:35:27 14193 to previous ScottComer   view
22 2011-03-08 08:41:01 13264 to previous StefanBodewig sign off EasyAnt and Lucene.NET reports view
21 2011-03-08 08:39:35 13247 to previous StefanBodewig try to resolve conflicts view
20 2011-03-08 02:54:52 17248 to previous udanax Add hama report view
19 2011-03-08 02:51:19 12958 to previous gdapenny   view
18 2011-03-08 02:43:07 11749 to previous PrescottNasser updated Lucene.Net view
17 2011-03-08 02:14:06 10356 to previous andrew   view
16 2011-03-07 20:27:25 9652 to previous GrantIngersoll   view
15 2011-03-07 13:10:57 9636 to previous KarlWright   view
14 2011-03-07 06:00:38 9616 to previous ChristianGrobmeier signed alois view
13 2011-03-07 01:06:20 9606 to previous MohammadNour   view
12 2011-03-06 20:59:24 9599 to previous Urs Lerch Report of ALOIS view
11 2011-03-04 09:22:48 8729 to previous StefanBodewig Add RAT report view
10 2011-03-04 09:06:02 8385 to previous AndySeaborne Add Jena report view
9 2011-03-03 18:19:39 6996 to previous DanHaywood   view
8 2011-03-03 08:01:28 7057 to previous DanHaywood working on Isis report - copied over last report (Dec 2010) for editing view
7 2011-03-02 04:12:44 5261 to previous antoine   view
6 2011-03-01 15:41:03 5323 to previous antoine   view
5 2011-03-01 14:42:01 4875 to previous JeremyHughes   view
4 2011-03-01 14:29:56 4958 to previous monteith   view
3 2011-03-01 14:14:53 4157 to previous KarlWright   view
2 2011-03-01 02:16:40 2371 to previous DavidCrossley start the next template view
1 2011-01-21 06:16:18 996 DavidCrossley Add due dates for upcoming meetings. view